Location: Colebrook
(42.0017°N, 73.0973°W)
Time: 16:38:26
(UTC-05:00)

Vanguard 2 - Pass Details

Date: 01 November 2021
Orbit: 554 x 2936 km, 32.9° (Epoch: 04 December)

Event Time Altitude Azimuth Distance (km) Brightness Sun altitude
Exits shadow 06:05:39 13° 246° (WSW) 3,397 10.3 -15.3°
Maximum altitude 06:08:42 16° 224° (SW) 2,911 10.1 -14.7°
Drops below altitude 10° 06:12:47 10° 189° (S) 2,907 10.5 -13.9°
Sets 06:16:11 0° 167° (SSE) 3,502 11.2 -13.3°
